Weather History for Atwater, CA

Change the Weather History Date:

Friday, November 16, 2012

  Actual Average (KMCE) Record (KMCE)
Temperature  
Mean Temperature 55 °F 52 °F  
Max Temperature 62 °F 64 °F 82 °F (2008)
Min Temperature 48 °F 41 °F 33 °F (2009)
Degree Days  
Heating Degree Days 10    
Month to date heating degree days  
Since 1 July heating degree days  
Cooling Degree Days 0    
Month to date cooling degree days  
Year to date cooling degree days  
Growing Degree Days 5 (Base 50)    
Moisture  
Dew Point 55 °F    
Average Humidity 99    
Maximum Humidity 100    
Minimum Humidity 88    
Precipitation  
Precipitation 0.01 in 0.04 in 0.09 in (2012)
Month to date precipitation 0.67  
Year to date precipitation 10.47  
Since 1 July precipitation 1.79  
Snow  
Snow 0.00 in - - ()
Month to date snowfall  
Since 1 July snowfall  
Since 1 September snowfall  
Snow Depth -    
Sea Level Pressure  
Sea Level Pressure 29.98 in    
Wind  
Wind Speed 5 mph (SE)    
Max Wind Speed 18 mph    
Max Gust Speed -    
Visibility 7 miles    
Events Rain    
T = Trace of Precipitation, MM = Missing Value Source: NWS Daily Summary

Daily Weather History Graph

Daily Weather History Graph

Search for Another Location

Airport:

Trip Planner

Search our weather history database for the weather conditions in past years. The results will help you decide how hot, cold, wet, or windy it might be!

Date:

Astronomy

Nov. 16, 2012 Rise Set
Actual Time 6:43 AM PST 4:50 PM PST
Civil Twilight 6:15 AM PST 5:18 PM PST
Nautical Twilight 5:43 AM PST 5:50 PM PST
Astronomical Twilight 5:12 AM PST 6:21 PM PST
Moon 9:41 AM PST (11/16) 7:57 PM PST (11/16)
Length of Visible Light 11h 03m
Length of Day
10h 07m
Waxing Crescent, 12% of the Moon is Illuminated
Nov 16
Waxing Crescent
Nov 20
First Quarter
Nov 28
Full
Dec 6
Last Quarter
Dec 13
New

Hourly Weather History & Observations

Time (PST) Temp. Dew Point Humidity Pressure Visibility Wind Dir Wind Speed Gust Speed Precip Events Conditions
12:15 AM 51.8 °F 51.8 °F 100% 30.00 in 5.0 mi SE 3.5 mph - N/A   Scattered Clouds
12:35 AM 53.6 °F 53.6 °F 100% 30.00 in 4.0 mi Calm Calm - N/A   Mostly Cloudy
12:55 AM 53.6 °F 53.6 °F 100% 30.01 in 5.0 mi Calm Calm - N/A   Mostly Cloudy
1:15 AM 51.8 °F 51.8 °F 100% 30.01 in 5.0 mi SE 3.5 mph - N/A   Scattered Clouds
1:35 AM 51.8 °F 51.8 °F 100% 30.00 in 4.0 mi NE 3.5 mph - N/A   Mostly Cloudy
1:55 AM 51.8 °F 51.8 °F 100% 30.00 in 5.0 mi Calm Calm - N/A   Partly Cloudy
2:15 AM 53.6 °F 53.6 °F 100% 30.01 in 5.0 mi Calm Calm - N/A   Partly Cloudy
2:35 AM 51.8 °F 51.8 °F 100% 30.00 in 5.0 mi Calm Calm - N/A   Partly Cloudy
2:55 AM 50.0 °F 50.0 °F 100% 30.00 in 5.0 mi SE 4.6 mph - N/A   Clear
3:15 AM 48.2 °F 48.2 °F 100% 30.00 in 4.0 mi East 3.5 mph - N/A   Scattered Clouds
3:35 AM 50.0 °F 50.0 °F 100% 30.00 in 6.0 mi SSE 4.6 mph - N/A   Overcast
3:55 AM 51.8 °F 51.8 °F 100% 29.99 in 7.0 mi SE 4.6 mph - N/A   Mostly Cloudy
4:15 AM 53.6 °F 53.6 °F 100% 29.99 in 8.0 mi SE 6.9 mph - N/A   Mostly Cloudy
4:35 AM 53.6 °F 53.6 °F 100% 30.00 in 8.0 mi SSE 5.8 mph - N/A   Mostly Cloudy
4:55 AM 53.6 °F 53.6 °F 100% 29.99 in 8.0 mi SE 3.5 mph - N/A   Mostly Cloudy
5:15 AM 53.6 °F 53.6 °F 100% 29.99 in 8.0 mi Calm Calm - N/A   Mostly Cloudy
5:35 AM 53.6 °F 53.6 °F 100% 29.99 in 8.0 mi Calm Calm - N/A   Mostly Cloudy
5:55 AM 53.6 °F 53.6 °F 100% 30.00 in 8.0 mi Calm Calm - N/A   Scattered Clouds
6:45 AM 53.6 °F 53.6 °F 100% 30.00 in 8.0 mi ESE 11.5 mph - N/A   Drizzle
7:45 AM 55.4 °F 55.4 °F 100% 30.02 in 7.0 mi WSW 5.8 mph - N/A   Mostly Cloudy
8:45 AM 55.4 °F 55.4 °F 100% 30.04 in 5.0 mi SE 8.1 mph - N/A Rain Rain
9:50 AM 55.4 °F 55.4 °F 100% 30.05 in 5.0 mi SSE 11.5 mph - N/A Rain Rain
10:45 AM 55.4 °F 55.4 °F 100% 30.05 in 5.0 mi SSE 13.8 mph - N/A Rain Rain
11:45 AM 57.2 °F 57.2 °F 100% 30.02 in 5.0 mi SSE 13.8 mph - N/A Rain Light Rain
12:45 PM 59.0 °F 59.0 °F 100% 30.00 in 7.0 mi SSE 13.8 mph - N/A   Overcast
1:45 PM 62.6 °F 62.6 °F 100% 29.99 in 10.0 mi ESE 12.7 mph - N/A   Overcast
2:45 PM 62.6 °F 60.8 °F 94% 29.98 in 10.0 mi SE 5.8 mph - N/A   Overcast
3:45 PM 62.6 °F 59.0 °F 88% 29.97 in 10.0 mi SE 9.2 mph - N/A   Overcast
4:45 PM 60.8 °F 60.8 °F 100% 29.96 in 10.0 mi SE 6.9 mph - N/A   Overcast
5:45 PM 60.8 °F 59.0 °F 94% 29.96 in 10.0 mi SSE 12.7 mph - N/A   Overcast
6:45 PM 57.2 °F 57.2 °F 100% 29.96 in 7.0 mi SSE 18.4 mph - N/A Rain Rain
7:55 PM 55.4 °F 55.4 °F 100% 29.95 in 5.0 mi ESE 11.5 mph - N/A Rain Rain
8:15 PM 55.4 °F 55.4 °F 100% 29.95 in 8.0 mi SE 11.5 mph - N/A   Mostly Cloudy
8:35 PM 55.4 °F 55.4 °F 100% 29.95 in 7.0 mi SE 9.2 mph - N/A   Overcast
8:45 PM 57.2 °F 57.2 °F 100% 29.95 in 10.0 mi SE 8.1 mph - N/A   Overcast
8:55 PM 57.2 °F 57.2 °F 100% 29.95 in 7.0 mi SE 6.9 mph - N/A   Overcast
9:15 PM 57.2 °F 57.2 °F 100% 29.94 in 7.0 mi SE 5.8 mph - N/A   Mostly Cloudy
9:35 PM 57.2 °F 57.2 °F 100% 29.94 in 10.0 mi SSE 9.2 mph - N/A   Mostly Cloudy
9:55 PM 57.2 °F 57.2 °F 100% 29.94 in 10.0 mi SSE 6.9 mph - N/A   Overcast
10:15 PM 57.2 °F 57.2 °F 100% 29.95 in 10.0 mi South 8.1 mph - N/A   Overcast
10:35 PM 57.2 °F 57.2 °F 100% 29.95 in 10.0 mi SSE 9.2 mph - N/A   Overcast
10:55 PM 57.2 °F 57.2 °F 100% 29.95 in 10.0 mi South 10.4 mph - N/A   Overcast
11:15 PM 57.2 °F 57.2 °F 100% 29.94 in 10.0 mi South 11.5 mph - N/A   Mostly Cloudy
11:35 PM 59.0 °F 59.0 °F 100% 29.95 in 10.0 mi South 12.7 mph - N/A   Mostly Cloudy
11:55 PM 57.2 °F 57.2 °F 100% 29.94 in 10.0 mi South 13.8 mph - 0.01 in   Overcast